Weather History for Pueblo, CO

Change the Weather History Date:

Tuesday, August 13, 2013

  Actual Average Record
Temperature  
Mean Temperature 70 °F 74 °F  
Max Temperature 83 °F 90 °F 102 °F (1996)
Min Temperature 57 °F 58 °F 41 °F (1899)
Degree Days  
Heating Degree Days 0 0  
Month to date heating degree days 0 0  
Since 1 June heating degree days 17 26  
Since 1 July heating degree days 0 1  
Cooling Degree Days 5 9  
Month to date cooling degree days 114 126  
Year to date cooling degree days 853 671  
Since 1 June cooling degree days 780 637  
Growing Degree Days 20 (Base 50)    
Moisture  
Dew Point 56 °F    
Average Humidity 64    
Maximum Humidity 93    
Minimum Humidity 34    
Precipitation  
Precipitation 0.11 in 0.08 in 1.44 in (1946)
Month to date precipitation 3.23 1.08  
Year to date precipitation 7.11 8.99  
Snow  
Snow 0.00 in 0.00 in 0.00 in (2002)
Month to date snowfall 0.0 0.0  
Since 1 June snowfall T 0.0  
Since 1 July snowfall T 0.0  
Snow Depth 0.00 in    
Sea Level Pressure  
Sea Level Pressure 30.08 in    
Wind  
Wind Speed 6 mph (NNE)    
Max Wind Speed 44 mph    
Max Gust Speed 49 mph    
Visibility 9 miles    
Events Rain , Thunderstorm    
T = Trace of Precipitation, MM = Missing Value Source: NWS Daily Summary

Daily Weather History Graph

Daily Weather History Graph

Search for Another Location

Airport:

Trip Planner

Search our weather history database for the weather conditions in past years. The results will help you decide how hot, cold, wet, or windy it might be!

Date:

Astronomy

Aug. 13, 2013 Rise Set
Actual Time 6:11 AM MDT 7:53 PM MDT
Civil Twilight 5:42 AM MDT 8:22 PM MDT
Nautical Twilight 5:08 AM MDT 8:56 PM MDT
Astronomical Twilight 4:32 AM MDT 9:32 PM MDT
Moon 1:01 PM MDT (8/13) 11:37 PM MDT (8/13)
Length of Visible Light 14h 39m
Length of Day
13h 42m
Waxing Crescent, 42% of the Moon is Illuminated
Aug 13
Waxing Crescent
Aug 14
First Quarter
Aug 20
Full
Aug 28
Last Quarter
Sep 5
New

Hourly Weather History & Observations

Time (MDT) Temp. Heat Index Dew Point Humidity Pressure Visibility Wind Dir Wind Speed Gust Speed Precip Events Conditions
12:53 AM 62.1 °F - 57.9 °F 86% 30.10 in 10.0 mi WNW 4.6 mph - N/A   Partly Cloudy
1:53 AM 61.0 °F - 57.0 °F 87% 30.08 in 10.0 mi NW 6.9 mph - N/A   Clear
2:53 AM 60.1 °F - 55.9 °F 86% 30.06 in 10.0 mi NW 5.8 mph - N/A   Clear
3:53 AM 59.0 °F - 57.0 °F 93% 30.05 in 10.0 mi SSW 3.5 mph - N/A   Clear
4:53 AM 59.0 °F - 57.0 °F 93% 30.04 in 10.0 mi Calm Calm - N/A   Clear
5:53 AM 57.9 °F - 55.9 °F 93% 30.08 in 10.0 mi East 5.8 mph - N/A   Clear
6:53 AM 57.9 °F - 55.9 °F 93% 30.08 in 10.0 mi East 3.5 mph - N/A   Clear
7:53 AM 62.1 °F - 55.9 °F 80% 30.07 in 10.0 mi Calm Calm - N/A   Clear
8:53 AM 66.9 °F - 55.9 °F 68% 30.07 in 10.0 mi Calm Calm - N/A   Clear
9:53 AM 71.1 °F - 54.0 °F 55% 30.07 in 10.0 mi Calm Calm - N/A   Clear
10:53 AM 73.9 °F - 54.0 °F 50% 30.06 in 10.0 mi SSW 6.9 mph - N/A   Clear
11:53 AM 77.0 °F - 52.0 °F 42% 30.05 in 10.0 mi Calm Calm - N/A   Clear
12:53 PM 78.1 °F - 53.1 °F 42% 30.04 in 10.0 mi Calm Calm - N/A   Clear
1:53 PM 81.0 °F 80.5 °F 54.0 °F 39% 30.02 in 10.0 mi ESE 9.2 mph - N/A   Clear
2:53 PM 82.0 °F 81.2 °F 53.1 °F 37% 30.00 in 10.0 mi East 10.4 mph 18.4 mph N/A   Clear
3:53 PM 82.0 °F - 52.0 °F 35% 30.00 in 10.0 mi ENE 15.0 mph 18.4 mph N/A   Scattered Clouds
4:42 PM 75.2 °F - 51.8 °F 44% 30.19 in 9.0 mi North 32.2 mph 44.9 mph 0.00 in Rain , Thunderstorm Rain
4:53 PM 60.1 °F - 57.0 °F 90% 30.07 in 0.8 mi NNE 42.6 mph 49.5 mph 0.07 in Rain , Thunderstorm Thunderstorms and Rain
4:58 PM 60.8 °F - 57.2 °F 88% 30.19 in 1.0 mi NE 34.5 mph 49.5 mph 0.04 in Rain , Thunderstorm Thunderstorms and Rain
5:04 PM 62.6 °F - 57.2 °F 82% 30.19 in 3.0 mi NE 19.6 mph 39.1 mph 0.04 in Rain , Thunderstorm Thunderstorms and Rain
5:29 PM 64.4 °F - 57.2 °F 77% 30.22 in 10.0 mi ENE 15.0 mph - 0.04 in Rain Light Rain
5:53 PM 66.9 °F - 57.0 °F 70% 30.09 in 10.0 mi ENE 8.1 mph - 0.04 in   Overcast
6:53 PM 71.1 °F - 54.0 °F 55% 30.06 in 10.0 mi NW 5.8 mph - 0.00 in   Clear
7:53 PM 68.0 °F - 55.9 °F 65% 30.07 in 10.0 mi West 10.4 mph - N/A   Mostly Cloudy
8:53 PM 66.9 °F - 57.9 °F 73% 30.08 in 10.0 mi NNW 8.1 mph - N/A   Partly Cloudy
9:53 PM 66.9 °F - 57.0 °F 70% 30.08 in 10.0 mi Calm Calm - N/A   Clear
10:53 PM 64.9 °F - 60.1 °F 84% 30.07 in 10.0 mi NNW 5.8 mph - N/A   Clear
11:53 PM 64.0 °F - 57.9 °F 80% 30.06 in 10.0 mi Calm Calm - N/A   Clear